Time,TemperatureF,DewpointF,PressureIn,WindDirection,WindDirectionDegrees,WindSpeedMPH,WindSpeedGustMPH,Humidity,HourlyPrecipIn,Conditions,Clouds,dailyrainin,SoftwareType,DateUTC
2013-08-31 00:01:00,72.2,68.4,29.91,East,98,0.0,9.0,88,0.00,,,0.00,WeatherCatV1.20B785,2013-08-31 04:01:00,
2013-08-31 00:06:00,72.2,68.4,29.92,SE,131,0.0,4.0,88,0.00,,,0.00,WeatherCatV1.20B785,2013-08-31 04:06:00,
2013-08-31 00:11:00,72.2,68.8,29.92,SSW,206,0.0,3.0,89,0.00,,,0.00,WeatherCatV1.20B785,2013-08-31 04:11:00,
2013-08-31 00:16:00,72.0,68.6,29.91,East,85,0.0,3.0,89,0.00,,,0.00,WeatherCatV1.20B785,2013-08-31 04:16:00,
2013-08-31 00:21:00,72.0,68.6,29.92,ESE,112,0.0,2.0,89,0.00,,,0.00,WeatherCatV1.20B785,2013-08-31 04:21:00,
2013-08-31 00:26:00,72.2,68.4,29.92,ENE,60,0.0,3.0,88,0.00,,,0.00,WeatherCatV1.20B785,2013-08-31 04:26:00,
2013-08-31 00:31:00,72.1,68.7,29.92,SE,137,2.0,3.0,89,0.00,,,0.00,WeatherCatV1.20B785,2013-08-31 04:31:00,
2013-08-31 00:36:00,72.0,68.6,29.91,NNE,27,2.0,4.0,89,0.00,,,0.00,WeatherCatV1.20B785,2013-08-31 04:36:00,
2013-08-31 00:41:00,71.8,68.4,29.92,East,86,0.0,0.0,89,0.00,,,0.00,WeatherCatV1.20B785,2013-08-31 04:41:00,
2013-08-31 00:46:00,71.7,68.6,29.91,East,99,0.0,0.0,90,0.00,,,0.00,WeatherCatV1.20B785,2013-08-31 04:46:00,
2013-08-31 00:51:00,71.5,68.4,29.91,East,100,0.0,0.0,90,0.00,,,0.00,WeatherCatV1.20B785,2013-08-31 04:51:00,
2013-08-31 00:56:00,71.4,68.3,29.91,ESE,105,0.0,2.0,90,0.00,,,0.00,WeatherCatV1.20B785,2013-08-31 04:56:00,
2013-08-31 01:01:00,71.4,68.3,29.92,ESE,122,0.0,0.0,90,0.00,,,0.00,WeatherCatV1.20B785,2013-08-31 05:01:00,
2013-08-31 01:06:00,71.3,68.2,29.91,ESE,121,0.0,0.0,90,0.00,,,0.00,WeatherCatV1.20B785,2013-08-31 05:06:00,
2013-08-31 01:11:00,71.2,68.1,29.91,ESE,121,0.0,0.0,90,0.00,,,0.00,WeatherCatV1.20B785,2013-08-31 05:11:00,
2013-08-31 01:16:00,71.0,68.2,29.91,ESE,121,0.0,0.0,91,0.00,,,0.00,WeatherCatV1.20B785,2013-08-31 05:16:00,
2013-08-31 01:21:00,70.8,68.0,29.91,ESE,109,0.0,0.0,91,0.00,,,0.00,WeatherCatV1.20B785,2013-08-31 05:21:00,
2013-08-31 01:26:00,70.6,68.2,29.91,ESE,110,0.0,1.0,92,0.00,,,0.00,WeatherCatV1.20B785,2013-08-31 05:26:00,
2013-08-31 01:31:00,70.5,68.1,29.91,ESE,109,0.0,0.0,92,0.00,,,0.00,WeatherCatV1.20B785,2013-08-31 05:31:00,
2013-08-31 01:36:00,70.5,68.4,29.91,SE,137,0.0,1.0,93,0.00,,,0.00,WeatherCatV1.20B785,2013-08-31 05:36:00,
2013-08-31 01:41:00,70.8,68.3,29.91,SE,136,0.0,0.0,92,0.00,,,0.00,WeatherCatV1.20B785,2013-08-31 05:41:00,
2013-08-31 01:46:00,70.8,68.3,29.91,SE,136,0.0,0.0,92,0.00,,,0.00,WeatherCatV1.20B785,2013-08-31 05:46:00,
2013-08-31 01:51:00,71.0,68.6,29.91,ENE,63,0.0,1.0,92,0.00,,,0.00,WeatherCatV1.20B785,2013-08-31 05:51:00,
2013-08-31 01:56:00,71.1,68.7,29.91,East,79,3.0,5.0,92,0.00,,,0.00,WeatherCatV1.20B785,2013-08-31 05:56:00,
2013-08-31 02:01:00,71.3,68.5,29.91,SE,145,1.0,7.0,91,0.00,,,0.00,WeatherCatV1.20B785,2013-08-31 06:01:00,
2013-08-31 02:06:00,71.4,68.6,29.91,NE,56,0.0,1.0,91,0.00,,,0.00,WeatherCatV1.20B785,2013-08-31 06:06:00,
2013-08-31 02:11:00,71.4,68.6,29.91,East,101,2.0,4.0,91,0.00,,,0.00,WeatherCatV1.20B785,2013-08-31 06:11:00,
2013-08-31 02:16:00,71.3,68.5,29.90,NE,56,3.0,6.0,91,0.00,,,0.00,WeatherCatV1.20B785,2013-08-31 06:16:00,
2013-08-31 02:21:00,71.2,68.4,29.90,NE,41,1.0,3.0,91,0.00,,,0.00,WeatherCatV1.20B785,2013-08-31 06:21:00,
2013-08-31 02:26:00,71.2,68.8,29.90,ESE,105,1.0,1.0,92,0.00,,,0.00,WeatherCatV1.20B785,2013-08-31 06:26:00,
2013-08-31 02:31:00,71.2,68.8,29.90,ENE,60,0.0,2.0,92,0.00,,,0.00,WeatherCatV1.20B785,2013-08-31 06:31:00,
2013-08-31 02:36:00,71.1,68.7,29.90,East,92,0.0,2.0,92,0.00,,,0.00,WeatherCatV1.20B785,2013-08-31 06:36:00,
2013-08-31 02:41:00,71.0,68.6,29.90,ENE,68,0.0,1.0,92,0.00,,,0.00,WeatherCatV1.20B785,2013-08-31 06:41:00,
2013-08-31 02:46:00,70.9,68.4,29.90,ENE,68,0.0,1.0,92,0.00,,,0.00,WeatherCatV1.20B785,2013-08-31 06:46:00,
2013-08-31 02:51:00,70.8,68.7,29.90,ENE,78,0.0,0.0,93,0.00,,,0.00,WeatherCatV1.20B785,2013-08-31 06:51:00,
2013-08-31 02:56:00,70.8,68.7,29.90,ENE,78,0.0,1.0,93,0.00,,,0.00,WeatherCatV1.20B785,2013-08-31 06:56:00,
2013-08-31 03:01:00,70.8,68.7,29.90,ENE,78,0.0,1.0,93,0.00,,,0.00,WeatherCatV1.20B785,2013-08-31 07:01:00,
2013-08-31 03:06:00,70.8,68.7,29.90,ESE,122,0.0,1.0,93,0.00,,,0.00,WeatherCatV1.20B785,2013-08-31 07:06:00,
2013-08-31 03:11:00,70.8,68.7,29.90,ENE,63,0.0,0.0,93,0.00,,,0.00,WeatherCatV1.20B785,2013-08-31 07:11:00,
2013-08-31 03:16:00,70.9,68.8,29.90,ENE,74,0.0,1.0,93,0.00,,,0.00,WeatherCatV1.20B785,2013-08-31 07:16:00,
2013-08-31 03:21:00,70.9,68.8,29.90,ENE,74,0.0,1.0,93,0.00,,,0.00,WeatherCatV1.20B785,2013-08-31 07:21:00,
2013-08-31 03:26:00,70.9,68.8,29.90,ENE,74,0.0,1.0,93,0.00,,,0.00,WeatherCatV1.20B785,2013-08-31 07:26:00,
2013-08-31 03:31:00,70.9,68.4,29.90,East,87,0.0,1.0,92,0.00,,,0.00,WeatherCatV1.20B785,2013-08-31 07:31:00,
2013-08-31 03:36:00,70.9,68.8,29.90,East,87,0.0,0.0,93,0.00,,,0.00,WeatherCatV1.20B785,2013-08-31 07:36:00,
2013-08-31 03:41:00,70.9,68.8,29.90,ENE,77,0.0,1.0,93,0.00,,,0.00,WeatherCatV1.20B785,2013-08-31 07:41:00,
2013-08-31 03:46:00,70.9,68.8,29.90,ENE,59,0.0,1.0,93,0.00,,,0.00,WeatherCatV1.20B785,2013-08-31 07:46:00,
2013-08-31 03:51:00,70.8,68.3,29.90,ENE,58,0.0,1.0,92,0.00,,,0.00,WeatherCatV1.20B785,2013-08-31 07:51:00,
2013-08-31 03:56:00,70.8,68.3,29.90,East,88,0.0,0.0,92,0.00,,,0.00,WeatherCatV1.20B785,2013-08-31 07:56:00,
2013-08-31 04:01:00,70.7,68.6,29.90,East,91,0.0,1.0,93,0.00,,,0.00,WeatherCatV1.20B785,2013-08-31 08:01:00,
2013-08-31 04:06:00,70.6,68.5,29.90,East,91,0.0,0.0,93,0.00,,,0.00,WeatherCatV1.20B785,2013-08-31 08:06:00,
2013-08-31 04:11:00,70.3,68.2,29.90,East,90,0.0,0.0,93,0.00,,,0.00,WeatherCatV1.20B785,2013-08-31 08:11:00,
2013-08-31 04:16:00,70.1,68.3,29.89,East,90,0.0,0.0,94,0.00,,,0.00,WeatherCatV1.20B785,2013-08-31 08:16:00,
2013-08-31 04:21:00,69.9,68.1,29.89,East,90,0.0,0.0,94,0.00,,,0.00,WeatherCatV1.20B785,2013-08-31 08:21:00,
2013-08-31 04:26:00,69.6,67.8,29.89,East,90,0.0,0.0,94,0.00,,,0.00,WeatherCatV1.20B785,2013-08-31 08:26:00,
2013-08-31 04:31:00,69.3,67.5,29.89,East,90,0.0,1.0,94,0.00,,,0.00,WeatherCatV1.20B785,2013-08-31 08:31:00,
2013-08-31 04:36:00,69.1,67.6,29.89,East,90,0.0,0.0,95,0.00,,,0.00,WeatherCatV1.20B785,2013-08-31 08:36:00,
2013-08-31 04:41:00,68.8,67.3,29.89,East,90,0.0,0.0,95,0.00,,,0.00,WeatherCatV1.20B785,2013-08-31 08:41:00,
2013-08-31 04:46:00,68.7,67.2,29.89,East,90,0.0,0.0,95,0.00,,,0.00,WeatherCatV1.20B785,2013-08-31 08:46:00,
2013-08-31 04:51:00,68.5,67.0,29.89,East,90,0.0,0.0,95,0.00,,,0.00,WeatherCatV1.20B785,2013-08-31 08:51:00,
2013-08-31 04:56:00,68.3,66.8,29.90,East,90,0.0,0.0,95,0.00,,,0.00,WeatherCatV1.20B785,2013-08-31 08:56:00,
2013-08-31 05:01:00,68.2,67.0,29.89,East,90,0.0,0.0,96,0.00,,,0.00,WeatherCatV1.20B785,2013-08-31 09:01:00,
2013-08-31 05:06:00,67.9,66.4,29.90,East,90,0.0,0.0,95,0.00,,,0.00,WeatherCatV1.20B785,2013-08-31 09:06:00,
2013-08-31 05:11:00,67.9,66.7,29.89,East,90,0.0,0.0,96,0.00,,,0.00,WeatherCatV1.20B785,2013-08-31 09:11:00,
2013-08-31 05:16:00,67.9,66.7,29.89,East,90,0.0,0.0,96,0.00,,,0.00,WeatherCatV1.20B785,2013-08-31 09:16:00,
2013-08-31 05:21:00,67.9,66.7,29.90,East,90,0.0,0.0,96,0.00,,,0.00,WeatherCatV1.20B785,2013-08-31 09:21:00,
2013-08-31 05:26:00,67.8,66.9,29.90,East,90,0.0,0.0,97,0.00,,,0.00,WeatherCatV1.20B785,2013-08-31 09:26:00,
2013-08-31 05:31:00,67.9,67.0,29.90,East,90,0.0,0.0,97,0.00,,,0.00,WeatherCatV1.20B785,2013-08-31 09:31:00,
2013-08-31 05:36:00,67.8,66.9,29.90,East,90,0.0,0.0,97,0.00,,,0.00,WeatherCatV1.20B785,2013-08-31 09:36:00,
2013-08-31 05:41:00,67.9,67.0,29.90,East,90,0.0,0.0,97,0.00,,,0.00,WeatherCatV1.20B785,2013-08-31 09:41:00,
2013-08-31 05:46:00,67.9,67.0,29.90,East,90,0.0,0.0,97,0.00,,,0.00,WeatherCatV1.20B785,2013-08-31 09:46:00,
2013-08-31 05:51:00,67.8,66.9,29.90,East,90,0.0,0.0,97,0.00,,,0.00,WeatherCatV1.20B785,2013-08-31 09:51:00,
2013-08-31 05:56:00,67.7,66.8,29.90,East,90,0.0,0.0,97,0.00,,,0.00,WeatherCatV1.20B785,2013-08-31 09:56:00,
2013-08-31 06:01:00,67.7,66.8,29.90,East,90,0.0,0.0,97,0.00,,,0.00,WeatherCatV1.20B785,2013-08-31 10:01:00,
2013-08-31 06:06:00,67.6,66.4,29.91,East,90,0.0,0.0,96,0.00,,,0.00,WeatherCatV1.20B785,2013-08-31 10:06:00,
2013-08-31 06:11:00,67.5,66.6,29.91,East,90,0.0,0.0,97,0.00,,,0.00,WeatherCatV1.20B785,2013-08-31 10:11:00,
2013-08-31 06:16:00,67.4,66.5,29.90,East,90,0.0,0.0,97,0.00,,,0.00,WeatherCatV1.20B785,2013-08-31 10:16:00,
2013-08-31 06:21:00,67.4,66.5,29.90,East,90,0.0,0.0,97,0.00,,,0.00,WeatherCatV1.20B785,2013-08-31 10:21:00,
2013-08-31 06:26:00,67.3,66.4,29.90,East,90,0.0,0.0,97,0.00,,,0.00,WeatherCatV1.20B785,2013-08-31 10:26:00,
2013-08-31 06:31:00,67.3,66.4,29.90,East,90,0.0,0.0,97,0.00,,,0.00,WeatherCatV1.20B785,2013-08-31 10:31:00,
2013-08-31 06:36:00,67.3,66.4,29.90,East,90,0.0,0.0,97,0.00,,,0.00,WeatherCatV1.20B785,2013-08-31 10:36:00,
2013-08-31 06:41:00,67.3,66.4,29.90,East,90,0.0,0.0,97,0.00,,,0.00,WeatherCatV1.20B785,2013-08-31 10:41:00,
2013-08-31 06:46:00,67.4,66.5,29.90,East,90,0.0,0.0,97,0.00,,,0.00,WeatherCatV1.20B785,2013-08-31 10:46:00,
2013-08-31 06:51:00,67.4,66.5,29.90,East,90,0.0,0.0,97,0.00,,,0.00,WeatherCatV1.20B785,2013-08-31 10:51:00,
2013-08-31 06:56:00,67.4,66.5,29.90,East,90,0.0,0.0,97,0.00,,,0.00,WeatherCatV1.20B785,2013-08-31 10:56:00,
2013-08-31 07:01:00,67.4,66.5,29.90,East,90,0.0,0.0,97,0.00,,,0.00,WeatherCatV1.20B785,2013-08-31 11:01:00,
2013-08-31 07:06:00,67.4,66.5,29.90,East,90,0.0,0.0,97,0.00,,,0.00,WeatherCatV1.20B785,2013-08-31 11:06:00,
2013-08-31 07:11:00,67.4,66.5,29.91,East,90,0.0,0.0,97,0.00,,,0.00,WeatherCatV1.20B785,2013-08-31 11:11:00,
2013-08-31 07:16:00,67.5,66.6,29.91,East,90,0.0,0.0,97,0.00,,,0.00,WeatherCatV1.20B785,2013-08-31 11:16:00,
2013-08-31 07:21:00,67.5,66.6,29.91,East,90,0.0,0.0,97,0.00,,,0.00,WeatherCatV1.20B785,2013-08-31 11:21:00,
2013-08-31 07:26:00,67.5,66.6,29.92,East,90,0.0,0.0,97,0.00,,,0.00,WeatherCatV1.20B785,2013-08-31 11:26:00,
2013-08-31 07:31:00,67.5,66.6,29.92,East,90,0.0,0.0,97,0.00,,,0.00,WeatherCatV1.20B785,2013-08-31 11:31:00,
2013-08-31 07:36:00,67.4,66.5,29.91,East,90,0.0,0.0,97,0.00,,,0.00,WeatherCatV1.20B785,2013-08-31 11:36:00,
2013-08-31 07:41:00,67.5,66.6,29.91,East,90,0.0,0.0,97,0.00,,,0.00,WeatherCatV1.20B785,2013-08-31 11:41:00,
2013-08-31 07:46:00,67.6,66.7,29.92,East,90,0.0,0.0,97,0.00,,,0.00,WeatherCatV1.20B785,2013-08-31 11:46:00,
2013-08-31 07:51:00,67.7,66.8,29.92,East,90,0.0,0.0,97,0.00,,,0.00,WeatherCatV1.20B785,2013-08-31 11:51:00,
2013-08-31 07:56:00,67.7,66.8,29.92,East,90,0.0,0.0,97,0.00,,,0.00,WeatherCatV1.20B785,2013-08-31 11:56:00,
2013-08-31 08:01:00,67.8,66.9,29.92,East,90,0.0,0.0,97,0.00,,,0.00,WeatherCatV1.20B785,2013-08-31 12:01:00,
2013-08-31 08:06:00,68.0,67.1,29.92,East,90,0.0,0.0,97,0.00,,,0.00,WeatherCatV1.20B785,2013-08-31 12:06:00,
2013-08-31 08:11:00,68.0,67.1,29.92,East,90,0.0,0.0,97,0.00,,,0.00,WeatherCatV1.20B785,2013-08-31 12:11:00,
2013-08-31 08:16:00,68.1,67.2,29.92,East,90,0.0,0.0,97,0.00,,,0.00,WeatherCatV1.20B785,2013-08-31 12:16:00,
2013-08-31 08:21:00,68.1,67.2,29.92,East,90,0.0,0.0,97,0.00,,,0.00,WeatherCatV1.20B785,2013-08-31 12:21:00,
2013-08-31 08:26:00,68.3,67.4,29.93,East,90,0.0,0.0,97,0.00,,,0.00,WeatherCatV1.20B785,2013-08-31 12:26:00,
2013-08-31 08:31:00,68.3,67.4,29.93,East,90,0.0,0.0,97,0.00,,,0.00,WeatherCatV1.20B785,2013-08-31 12:31:00,
2013-08-31 08:36:00,68.4,67.5,29.93,East,90,0.0,0.0,97,0.00,,,0.00,WeatherCatV1.20B785,2013-08-31 12:36:00,
2013-08-31 08:41:00,68.4,67.2,29.93,East,91,0.0,0.0,96,0.00,,,0.00,WeatherCatV1.20B785,2013-08-31 12:41:00,
2013-08-31 08:46:00,68.5,67.3,29.93,East,91,0.0,0.0,96,0.00,,,0.00,WeatherCatV1.20B785,2013-08-31 12:46:00,
2013-08-31 08:51:00,68.5,67.3,29.93,East,91,0.0,0.0,96,0.00,,,0.00,WeatherCatV1.20B785,2013-08-31 12:51:00,
2013-08-31 08:56:00,68.6,67.4,29.93,East,91,0.0,0.0,96,0.00,,,0.00,WeatherCatV1.20B785,2013-08-31 12:56:00,
2013-08-31 09:01:00,68.6,67.4,29.93,East,91,0.0,0.0,96,0.00,,,0.00,WeatherCatV1.20B785,2013-08-31 13:01:00,
2013-08-31 09:06:00,68.8,67.6,29.93,East,91,1.0,1.0,96,0.00,,,0.00,WeatherCatV1.20B785,2013-08-31 13:06:00,
2013-08-31 09:11:00,68.7,67.5,29.93,East,91,0.0,0.0,96,0.00,,,0.00,WeatherCatV1.20B785,2013-08-31 13:11:00,
2013-08-31 09:16:00,69.0,67.8,29.93,East,98,0.0,0.0,96,0.00,,,0.00,WeatherCatV1.20B785,2013-08-31 13:16:00,
2013-08-31 09:21:00,69.2,67.4,29.93,East,98,0.0,0.0,94,0.00,,,0.00,WeatherCatV1.20B785,2013-08-31 13:21:00,
2013-08-31 09:26:00,69.1,67.6,29.93,East,96,0.0,0.0,95,0.00,,,0.00,WeatherCatV1.20B785,2013-08-31 13:26:00,
2013-08-31 09:31:00,69.3,67.8,29.93,East,96,0.0,0.0,95,0.00,,,0.00,WeatherCatV1.20B785,2013-08-31 13:31:00,
2013-08-31 09:36:00,69.6,67.8,29.93,East,96,0.0,0.0,94,0.00,,,0.00,WeatherCatV1.20B785,2013-08-31 13:36:00,
2013-08-31 09:41:00,69.7,67.9,29.93,East,96,0.0,0.0,94,0.00,,,0.00,WeatherCatV1.20B785,2013-08-31 13:41:00,
2013-08-31 09:46:00,69.9,68.1,29.93,East,96,0.0,0.0,94,0.00,,,0.00,WeatherCatV1.20B785,2013-08-31 13:46:00,
2013-08-31 09:51:00,70.2,68.1,29.93,East,96,0.0,0.0,93,0.00,,,0.00,WeatherCatV1.20B785,2013-08-31 13:51:00,
2013-08-31 09:56:00,70.4,68.3,29.93,East,96,0.0,0.0,93,0.00,,,0.00,WeatherCatV1.20B785,2013-08-31 13:56:00,
2013-08-31 10:01:00,70.7,68.6,29.93,East,97,0.0,0.0,93,0.00,,,0.00,WeatherCatV1.20B785,2013-08-31 14:01:00,
2013-08-31 10:06:00,71.3,68.5,29.92,East,97,0.0,0.0,91,0.00,,,0.00,WeatherCatV1.20B785,2013-08-31 14:06:00,
2013-08-31 10:11:00,71.4,68.6,29.93,ESE,104,0.0,0.0,91,0.00,,,0.00,WeatherCatV1.20B785,2013-08-31 14:11:00,
2013-08-31 10:16:00,71.7,68.9,29.93,ESE,104,0.0,0.0,91,0.00,,,0.00,WeatherCatV1.20B785,2013-08-31 14:16:00,
2013-08-31 10:21:00,71.7,68.6,29.93,ESE,104,0.0,0.0,90,0.00,,,0.00,WeatherCatV1.20B785,2013-08-31 14:21:00,
2013-08-31 10:26:00,71.6,68.8,29.93,ESE,104,0.0,0.0,91,0.00,,,0.00,WeatherCatV1.20B785,2013-08-31 14:26:00,
2013-08-31 10:31:00,71.6,68.8,29.93,ESE,104,0.0,0.0,91,0.00,,,0.00,WeatherCatV1.20B785,2013-08-31 14:31:00,
2013-08-31 10:36:00,71.4,68.6,29.93,ESE,104,0.0,0.0,91,0.00,,,0.00,WeatherCatV1.20B785,2013-08-31 14:36:00,
2013-08-31 10:41:00,71.5,69.1,29.93,ESE,104,0.0,0.0,92,0.00,,,0.00,WeatherCatV1.20B785,2013-08-31 14:41:00,
2013-08-31 10:46:00,71.4,68.9,29.93,ESE,104,0.0,0.0,92,0.00,,,0.00,WeatherCatV1.20B785,2013-08-31 14:46:00,
2013-08-31 10:51:00,71.5,69.1,29.93,ESE,104,0.0,0.0,92,0.00,,,0.00,WeatherCatV1.20B785,2013-08-31 14:51:00,
2013-08-31 10:56:00,71.8,69.3,29.93,ESE,104,0.0,0.0,92,0.00,,,0.00,WeatherCatV1.20B785,2013-08-31 14:56:00,
2013-08-31 11:01:00,71.9,69.1,29.93,ESE,104,0.0,0.0,91,0.00,,,0.00,WeatherCatV1.20B785,2013-08-31 15:01:00,
2013-08-31 11:06:00,72.1,69.3,29.93,ESE,104,0.0,0.0,91,0.00,,,0.00,WeatherCatV1.20B785,2013-08-31 15:06:00,
2013-08-31 11:11:00,72.2,69.4,29.93,ESE,104,0.0,0.0,91,0.00,,,0.00,WeatherCatV1.20B785,2013-08-31 15:11:00,
2013-08-31 11:16:00,72.4,69.3,29.93,ESE,104,0.0,0.0,90,0.00,,,0.00,WeatherCatV1.20B785,2013-08-31 15:16:00,
2013-08-31 11:21:00,72.7,69.9,29.92,ESE,104,0.0,0.0,91,0.00,,,0.00,WeatherCatV1.20B785,2013-08-31 15:21:00,
2013-08-31 11:26:00,73.0,69.9,29.92,ESE,105,0.0,0.0,90,0.00,,,0.00,WeatherCatV1.20B785,2013-08-31 15:26:00,
2013-08-31 11:31:00,73.5,70.1,29.93,ESE,105,0.0,0.0,89,0.00,,,0.00,WeatherCatV1.20B785,2013-08-31 15:31:00,
2013-08-31 11:36:00,74.1,70.3,29.92,ESE,103,0.0,0.0,88,0.00,,,0.00,WeatherCatV1.20B785,2013-08-31 15:36:00,
2013-08-31 11:41:00,74.7,70.9,29.93,ESE,103,0.0,0.0,88,0.00,,,0.00,WeatherCatV1.20B785,2013-08-31 15:41:00,
2013-08-31 11:46:00,75.4,71.6,29.93,SE,126,0.0,1.0,88,0.00,,,0.00,WeatherCatV1.20B785,2013-08-31 15:46:00,
2013-08-31 11:51:00,76.2,71.0,29.92,ESE,118,0.0,0.0,84,0.00,,,0.00,WeatherCatV1.20B785,2013-08-31 15:51:00,
2013-08-31 11:56:00,76.2,71.3,29.92,ESE,118,0.0,0.0,85,0.00,,,0.00,WeatherCatV1.20B785,2013-08-31 15:56:00,
2013-08-31 12:01:00,76.4,70.8,29.92,ESE,118,0.0,0.0,83,0.00,,,0.00,WeatherCatV1.20B785,2013-08-31 16:01:00,
2013-08-31 12:06:00,76.8,70.5,29.92,ESE,117,0.0,0.0,81,0.00,,,0.00,WeatherCatV1.20B785,2013-08-31 16:06:00,
2013-08-31 12:11:00,77.0,71.1,29.92,SE,134,0.0,0.0,82,0.00,,,0.00,WeatherCatV1.20B785,2013-08-31 16:11:00,
2013-08-31 12:16:00,77.0,71.4,29.92,SE,135,0.0,1.0,83,0.00,,,0.00,WeatherCatV1.20B785,2013-08-31 16:16:00,
2013-08-31 12:21:00,77.2,70.5,29.92,SE,134,0.0,0.0,80,0.00,,,0.00,WeatherCatV1.20B785,2013-08-31 16:21:00,
2013-08-31 12:26:00,77.6,70.2,29.91,ESE,120,0.0,1.0,78,0.00,,,0.00,WeatherCatV1.20B785,2013-08-31 16:26:00,
2013-08-31 12:31:00,77.8,70.8,29.91,SE,134,1.0,3.0,79,0.00,,,0.00,WeatherCatV1.20B785,2013-08-31 16:31:00,
2013-08-31 12:36:00,78.0,70.6,29.91,East,93,0.0,0.0,78,0.00,,,0.00,WeatherCatV1.20B785,2013-08-31 16:36:00,
2013-08-31 12:41:00,78.6,71.5,29.91,ESE,112,0.0,0.0,79,0.00,,,0.00,WeatherCatV1.20B785,2013-08-31 16:41:00,
2013-08-31 12:46:00,78.9,71.4,29.91,ESE,112,0.0,0.0,78,0.00,,,0.00,WeatherCatV1.20B785,2013-08-31 16:46:00,
2013-08-31 12:51:00,79.2,71.3,29.91,ESE,112,0.0,0.0,77,0.00,,,0.00,WeatherCatV1.20B785,2013-08-31 16:51:00,
2013-08-31 12:56:00,79.7,71.8,29.90,ESE,113,2.0,2.0,77,0.00,,,0.00,WeatherCatV1.20B785,2013-08-31 16:56:00,
2013-08-31 13:01:00,80.2,71.5,29.90,East,95,0.0,1.0,75,0.00,,,0.00,WeatherCatV1.20B785,2013-08-31 17:01:00,
2013-08-31 13:06:00,80.7,71.2,29.90,East,101,0.0,2.0,73,0.00,,,0.00,WeatherCatV1.20B785,2013-08-31 17:06:00,
2013-08-31 13:11:00,81.1,71.6,29.90,ESE,111,0.0,3.0,73,0.00,,,0.00,WeatherCatV1.20B785,2013-08-31 17:11:00,
2013-08-31 13:16:00,81.2,71.3,29.90,ESE,112,0.0,2.0,72,0.00,,,0.00,WeatherCatV1.20B785,2013-08-31 17:16:00,
2013-08-31 13:21:00,81.6,72.1,29.89,East,97,1.0,1.0,73,0.00,,,0.00,WeatherCatV1.20B785,2013-08-31 17:21:00,
2013-08-31 13:26:00,81.7,72.6,29.89,ESE,102,0.0,0.0,74,0.00,,,0.00,WeatherCatV1.20B785,2013-08-31 17:26:00,
2013-08-31 13:31:00,81.7,72.6,29.89,ESE,103,0.0,0.0,74,0.00,,,0.00,WeatherCatV1.20B785,2013-08-31 17:31:00,
2013-08-31 13:36:00,82.2,71.8,29.89,SE,136,0.0,0.0,71,0.00,,,0.00,WeatherCatV1.20B785,2013-08-31 17:36:00,
2013-08-31 13:41:00,82.9,72.9,29.89,SE,136,0.0,0.0,72,0.00,,,0.00,WeatherCatV1.20B785,2013-08-31 17:41:00,
2013-08-31 13:46:00,83.4,72.1,29.88,SE,136,0.0,0.0,69,0.00,,,0.00,WeatherCatV1.20B785,2013-08-31 17:46:00,
2013-08-31 13:51:00,83.2,72.4,29.88,SE,133,0.0,1.0,70,0.00,,,0.00,WeatherCatV1.20B785,2013-08-31 17:51:00,
2013-08-31 13:56:00,82.5,72.9,29.87,ESE,114,0.0,3.0,73,0.00,,,0.00,WeatherCatV1.20B785,2013-08-31 17:56:00,
2013-08-31 14:01:00,82.9,72.9,29.87,SE,126,1.0,1.0,72,0.00,,,0.00,WeatherCatV1.20B785,2013-08-31 18:01:00,
2013-08-31 14:06:00,82.5,72.1,29.87,East,98,0.0,0.0,71,0.00,,,0.00,WeatherCatV1.20B785,2013-08-31 18:06:00,
2013-08-31 14:11:00,82.5,72.9,29.87,East,101,0.0,0.0,73,0.00,,,0.00,WeatherCatV1.20B785,2013-08-31 18:11:00,
2013-08-31 14:16:00,82.6,72.6,29.87,East,100,0.0,0.0,72,0.00,,,0.00,WeatherCatV1.20B785,2013-08-31 18:16:00,
2013-08-31 14:21:00,82.4,72.0,29.87,ESE,112,1.0,1.0,71,0.00,,,0.00,WeatherCatV1.20B785,2013-08-31 18:21:00,
2013-08-31 14:26:00,81.9,72.0,29.87,East,79,0.0,1.0,72,0.00,,,0.00,WeatherCatV1.20B785,2013-08-31 18:26:00,
2013-08-31 14:31:00,81.0,71.9,29.87,ENE,65,0.0,0.0,74,0.00,,,0.00,WeatherCatV1.20B785,2013-08-31 18:31:00,
2013-08-31 14:36:00,81.0,72.3,29.87,ENE,65,0.0,0.0,75,0.00,,,0.00,WeatherCatV1.20B785,2013-08-31 18:36:00,
2013-08-31 14:41:00,80.5,72.6,29.87,ENE,66,0.0,0.0,77,0.00,,,0.00,WeatherCatV1.20B785,2013-08-31 18:41:00,
2013-08-31 14:46:00,80.0,72.9,29.86,ENE,66,0.0,0.0,79,0.00,,,0.00,WeatherCatV1.20B785,2013-08-31 18:46:00,
2013-08-31 14:51:00,80.1,72.6,29.87,ESE,105,0.0,0.0,78,0.00,,,0.00,WeatherCatV1.20B785,2013-08-31 18:51:00,
2013-08-31 14:56:00,80.0,72.5,29.86,ESE,105,0.0,0.0,78,0.00,,,0.00,WeatherCatV1.20B785,2013-08-31 18:56:00,
2013-08-31 15:01:00,79.7,72.6,29.86,ESE,105,0.0,0.0,79,0.00,,,0.00,WeatherCatV1.20B785,2013-08-31 19:01:00,
2013-08-31 15:06:00,79.0,70.8,29.86,ESE,105,0.0,0.0,76,0.00,,,0.00,WeatherCatV1.20B785,2013-08-31 19:06:00,
2013-08-31 15:11:00,78.5,70.3,29.85,ESE,105,0.0,0.0,76,0.00,,,0.00,WeatherCatV1.20B785,2013-08-31 19:11:00,
2013-08-31 15:16:00,78.2,70.8,29.85,ESE,105,0.0,0.0,78,0.00,,,0.00,WeatherCatV1.20B785,2013-08-31 19:16:00,
2013-08-31 15:21:00,76.9,71.3,29.85,ESE,104,0.0,0.0,83,0.44,,,0.05,WeatherCatV1.20B785,2013-08-31 19:21:00,
2013-08-31 15:26:00,75.4,71.2,29.85,ESE,104,0.0,0.0,87,0.39,,,0.08,WeatherCatV1.20B785,2013-08-31 19:26:00,
2013-08-31 15:31:00,74.5,71.4,29.85,ESE,104,0.0,0.0,90,0.11,,,0.08,WeatherCatV1.20B785,2013-08-31 19:31:00,
2013-08-31 15:36:00,74.2,71.7,29.85,ESE,104,0.0,0.0,92,0.06,,,0.08,WeatherCatV1.20B785,2013-08-31 19:36:00,
2013-08-31 15:41:00,73.9,72.1,29.85,ESE,104,0.0,0.0,94,0.04,,,0.08,WeatherCatV1.20B785,2013-08-31 19:41:00,
2013-08-31 15:46:00,74.3,72.4,29.85,ENE,68,0.0,2.0,94,0.00,,,0.08,WeatherCatV1.20B785,2013-08-31 19:46:00,
2013-08-31 15:51:00,74.9,73.1,29.85,ENE,68,0.0,0.0,94,0.00,,,0.08,WeatherCatV1.20B785,2013-08-31 19:51:00,
2013-08-31 15:56:00,75.5,73.6,29.85,ENE,68,0.0,0.0,94,0.00,,,0.08,WeatherCatV1.20B785,2013-08-31 19:56:00,
2013-08-31 16:01:00,75.8,73.6,29.85,ENE,68,0.0,0.0,93,0.00,,,0.08,WeatherCatV1.20B785,2013-08-31 20:01:00,
2013-08-31 16:06:00,76.0,73.2,29.85,East,94,1.0,1.0,91,0.00,,,0.08,WeatherCatV1.20B785,2013-08-31 20:06:00,
2013-08-31 16:11:00,76.2,73.4,29.85,East,94,0.0,0.0,91,0.00,,,0.08,WeatherCatV1.20B785,2013-08-31 20:11:00,
2013-08-31 16:16:00,76.1,73.6,29.85,East,94,0.0,0.0,92,0.00,,,0.08,WeatherCatV1.20B785,2013-08-31 20:16:00,
2013-08-31 16:21:00,76.1,73.9,29.85,East,94,0.0,1.0,93,0.00,,,0.08,WeatherCatV1.20B785,2013-08-31 20:21:00,
2013-08-31 16:26:00,76.4,73.2,29.85,East,94,0.0,0.0,90,0.00,,,0.08,WeatherCatV1.20B785,2013-08-31 20:26:00,
2013-08-31 16:31:00,76.5,74.0,29.85,East,93,1.0,1.0,92,0.00,,,0.08,WeatherCatV1.20B785,2013-08-31 20:31:00,
2013-08-31 16:36:00,76.6,73.4,29.85,ENE,60,0.0,2.0,90,0.00,,,0.08,WeatherCatV1.20B785,2013-08-31 20:36:00,
2013-08-31 16:41:00,77.1,72.6,29.85,NE,41,0.0,4.0,86,0.00,,,0.08,WeatherCatV1.20B785,2013-08-31 20:41:00,
2013-08-31 16:46:00,76.8,71.9,29.85,ENE,78,0.0,2.0,85,0.00,,,0.08,WeatherCatV1.20B785,2013-08-31 20:46:00,
2013-08-31 16:51:00,76.8,71.6,29.84,East,98,0.0,1.0,84,0.00,,,0.08,WeatherCatV1.20B785,2013-08-31 20:51:00,
2013-08-31 16:56:00,76.7,71.1,29.84,NE,51,3.0,3.0,83,0.00,,,0.08,WeatherCatV1.20B785,2013-08-31 20:56:00,
2013-08-31 17:01:00,77.1,71.2,29.84,NE,49,0.0,3.0,82,0.00,,,0.08,WeatherCatV1.20B785,2013-08-31 21:01:00,
2013-08-31 17:06:00,77.1,71.9,29.83,ENE,73,0.0,1.0,84,0.00,,,0.08,WeatherCatV1.20B785,2013-08-31 21:06:00,
2013-08-31 17:11:00,77.4,71.8,29.83,ENE,62,0.0,4.0,83,0.00,,,0.08,WeatherCatV1.20B785,2013-08-31 21:11:00,
2013-08-31 17:16:00,77.2,72.0,29.83,ENE,76,1.0,1.0,84,0.00,,,0.08,WeatherCatV1.20B785,2013-08-31 21:16:00,
2013-08-31 17:21:00,77.2,71.6,29.83,ENE,77,1.0,5.0,83,0.00,,,0.08,WeatherCatV1.20B785,2013-08-31 21:21:00,
2013-08-31 17:26:00,77.4,71.8,29.82,ENE,65,0.0,1.0,83,0.00,,,0.08,WeatherCatV1.20B785,2013-08-31 21:26:00,
2013-08-31 17:31:00,77.5,71.9,29.82,ENE,69,0.0,0.0,83,0.00,,,0.08,WeatherCatV1.20B785,2013-08-31 21:31:00,
2013-08-31 17:36:00,77.3,71.7,29.82,ENE,75,1.0,3.0,83,0.00,,,0.08,WeatherCatV1.20B785,2013-08-31 21:36:00,
2013-08-31 17:41:00,77.9,71.6,29.83,ENE,58,1.0,2.0,81,0.00,,,0.08,WeatherCatV1.20B785,2013-08-31 21:41:00,
2013-08-31 17:46:00,78.2,70.4,29.83,ENE,60,0.0,8.0,77,0.00,,,0.08,WeatherCatV1.20B785,2013-08-31 21:46:00,
2013-08-31 17:51:00,78.2,70.8,29.83,ENE,70,3.0,6.0,78,0.00,,,0.08,WeatherCatV1.20B785,2013-08-31 21:51:00,
2013-08-31 17:56:00,78.2,70.8,29.84,NE,49,0.0,2.0,78,0.00,,,0.08,WeatherCatV1.20B785,2013-08-31 21:56:00,
2013-08-31 18:01:00,77.8,70.8,29.84,NE,56,2.0,2.0,79,0.00,,,0.08,WeatherCatV1.20B785,2013-08-31 22:01:00,
2013-08-31 18:06:00,77.8,70.4,29.84,ENE,59,5.0,5.0,78,0.00,,,0.08,WeatherCatV1.20B785,2013-08-31 22:06:00,
2013-08-31 18:11:00,78.0,70.2,29.84,ENE,63,1.0,6.0,77,0.00,,,0.08,WeatherCatV1.20B785,2013-08-31 22:11:00,
2013-08-31 18:16:00,78.1,70.7,29.84,East,86,2.0,8.0,78,0.00,,,0.08,WeatherCatV1.20B785,2013-08-31 22:16:00,
2013-08-31 18:21:00,77.9,70.1,29.84,ENE,75,0.0,5.0,77,0.00,,,0.08,WeatherCatV1.20B785,2013-08-31 22:21:00,
2013-08-31 18:26:00,77.6,69.8,29.84,NE,43,6.0,7.0,77,0.00,,,0.08,WeatherCatV1.20B785,2013-08-31 22:26:00,
2013-08-31 18:31:00,77.6,69.4,29.84,ENE,62,2.0,11.0,76,0.00,,,0.08,WeatherCatV1.20B785,2013-08-31 22:31:00,
2013-08-31 18:36:00,77.5,69.7,29.84,ENE,57,1.0,5.0,77,0.00,,,0.08,WeatherCatV1.20B785,2013-08-31 22:36:00,
2013-08-31 18:41:00,77.3,70.3,29.84,ENE,68,1.0,5.0,79,0.00,,,0.08,WeatherCatV1.20B785,2013-08-31 22:41:00,
2013-08-31 18:46:00,77.0,70.0,29.84,NE,51,2.0,4.0,79,0.00,,,0.08,WeatherCatV1.20B785,2013-08-31 22:46:00,
2013-08-31 18:51:00,76.9,70.2,29.84,NE,56,1.0,3.0,80,0.00,,,0.08,WeatherCatV1.20B785,2013-08-31 22:51:00,
2013-08-31 18:56:00,76.8,70.2,29.84,NE,56,3.0,6.0,80,0.00,,,0.08,WeatherCatV1.20B785,2013-08-31 22:56:00,
2013-08-31 19:01:00,76.8,70.2,29.84,NE,53,1.0,3.0,80,0.00,,,0.08,WeatherCatV1.20B785,2013-08-31 23:01:00,
2013-08-31 19:06:00,76.7,70.1,29.84,North,359,7.0,7.0,80,0.00,,,0.08,WeatherCatV1.20B785,2013-08-31 23:06:00,
2013-08-31 19:11:00,76.7,69.7,29.85,NE,55,4.0,4.0,79,0.00,,,0.08,WeatherCatV1.20B785,2013-08-31 23:11:00,
2013-08-31 19:16:00,76.6,69.9,29.84,ENE,67,2.0,3.0,80,0.00,,,0.08,WeatherCatV1.20B785,2013-08-31 23:16:00,
2013-08-31 19:21:00,76.4,69.4,29.84,East,84,2.0,5.0,79,0.00,,,0.08,WeatherCatV1.20B785,2013-08-31 23:21:00,
2013-08-31 19:26:00,76.3,70.0,29.84,ENE,60,1.0,1.0,81,0.00,,,0.08,WeatherCatV1.20B785,2013-08-31 23:26:00,
2013-08-31 19:31:00,75.9,69.6,29.85,East,92,0.0,0.0,81,0.00,,,0.08,WeatherCatV1.20B785,2013-08-31 23:31:00,
2013-08-31 19:36:00,75.6,69.7,29.85,East,84,0.0,1.0,82,0.00,,,0.08,WeatherCatV1.20B785,2013-08-31 23:36:00,
2013-08-31 19:41:00,75.2,69.3,29.85,East,89,0.0,1.0,82,0.00,,,0.08,WeatherCatV1.20B785,2013-08-31 23:41:00,
2013-08-31 19:46:00,74.9,68.3,29.85,ENE,69,2.0,3.0,80,0.00,,,0.08,WeatherCatV1.20B785,2013-08-31 23:46:00,
2013-08-31 19:51:00,74.8,68.2,29.85,ESE,108,1.0,1.0,80,0.00,,,0.08,WeatherCatV1.20B785,2013-08-31 23:51:00,
2013-08-31 19:56:00,74.6,68.0,29.85,ESE,114,0.0,2.0,80,0.00,,,0.08,WeatherCatV1.20B785,2013-08-31 23:56:00,
2013-08-31 20:01:00,74.4,68.2,29.85,ENE,58,0.0,1.0,81,0.00,,,0.08,WeatherCatV1.20B785,2013-09-01 00:01:00,
2013-08-31 20:06:00,74.2,68.0,29.86,ENE,72,1.0,2.0,81,0.00,,,0.08,WeatherCatV1.20B785,2013-09-01 00:06:00,
2013-08-31 20:11:00,74.1,68.2,29.86,ENE,70,1.0,2.0,82,0.00,,,0.08,WeatherCatV1.20B785,2013-09-01 00:11:00,
2013-08-31 20:16:00,74.0,68.1,29.86,East,101,1.0,4.0,82,0.00,,,0.08,WeatherCatV1.20B785,2013-09-01 00:16:00,
2013-08-31 20:21:00,74.1,68.9,29.87,East,101,0.0,1.0,84,0.00,,,0.08,WeatherCatV1.20B785,2013-09-01 00:21:00,
2013-08-31 20:26:00,73.7,68.6,29.87,ENE,74,0.0,2.0,84,0.00,,,0.08,WeatherCatV1.20B785,2013-09-01 00:26:00,
2013-08-31 20:31:00,73.2,68.8,29.87,ENE,74,0.0,1.0,86,0.00,,,0.08,WeatherCatV1.20B785,2013-09-01 00:31:00,
2013-08-31 20:36:00,72.9,68.8,29.87,ENE,74,0.0,0.0,87,0.00,,,0.08,WeatherCatV1.20B785,2013-09-01 00:36:00,
2013-08-31 20:41:00,72.6,68.5,29.87,ENE,74,0.0,0.0,87,0.00,,,0.08,WeatherCatV1.20B785,2013-09-01 00:41:00,
2013-08-31 20:46:00,72.5,68.7,29.87,ENE,74,0.0,0.0,88,0.00,,,0.08,WeatherCatV1.20B785,2013-09-01 00:46:00,
2013-08-31 20:51:00,72.3,68.5,29.87,ENE,74,0.0,1.0,88,0.00,,,0.08,WeatherCatV1.20B785,2013-09-01 00:51:00,
2013-08-31 20:56:00,72.2,68.4,29.87,ENE,69,0.0,3.0,88,0.00,,,0.08,WeatherCatV1.20B785,2013-09-01 00:56:00,
2013-08-31 21:01:00,72.1,68.7,29.88,ENE,69,0.0,0.0,89,0.00,,,0.08,WeatherCatV1.20B785,2013-09-01 01:01:00,
2013-08-31 21:06:00,72.0,68.6,29.88,ENE,69,0.0,0.0,89,0.00,,,0.08,WeatherCatV1.20B785,2013-09-01 01:06:00,
2013-08-31 21:11:00,71.9,68.5,29.87,East,85,0.0,1.0,89,0.00,,,0.08,WeatherCatV1.20B785,2013-09-01 01:11:00,
2013-08-31 21:16:00,71.7,68.3,29.87,East,85,0.0,0.0,89,0.00,,,0.08,WeatherCatV1.20B785,2013-09-01 01:16:00,
2013-08-31 21:21:00,71.6,68.5,29.88,East,85,0.0,0.0,90,0.00,,,0.08,WeatherCatV1.20B785,2013-09-01 01:21:00,
2013-08-31 21:26:00,71.3,68.2,29.88,East,85,0.0,0.0,90,0.00,,,0.08,WeatherCatV1.20B785,2013-09-01 01:26:00,
2013-08-31 21:31:00,71.2,68.4,29.88,East,85,0.0,0.0,91,0.00,,,0.08,WeatherCatV1.20B785,2013-09-01 01:31:00,
2013-08-31 21:36:00,71.0,68.2,29.88,East,85,0.0,0.0,91,0.00,,,0.08,WeatherCatV1.20B785,2013-09-01 01:36:00,
2013-08-31 21:41:00,71.0,68.2,29.88,East,85,0.0,0.0,91,0.00,,,0.08,WeatherCatV1.20B785,2013-09-01 01:41:00,
2013-08-31 21:46:00,70.7,68.2,29.88,East,85,0.0,0.0,92,0.00,,,0.08,WeatherCatV1.20B785,2013-09-01 01:46:00,
2013-08-31 21:51:00,70.5,68.1,29.88,East,85,0.0,0.0,92,0.00,,,0.08,WeatherCatV1.20B785,2013-09-01 01:51:00,
2013-08-31 21:56:00,70.4,68.3,29.88,East,85,0.0,0.0,93,0.00,,,0.08,WeatherCatV1.20B785,2013-09-01 01:56:00,
2013-08-31 22:01:00,70.2,68.1,29.88,East,85,0.0,0.0,93,0.00,,,0.08,WeatherCatV1.20B785,2013-09-01 02:01:00,
2013-08-31 22:06:00,70.0,67.9,29.88,East,85,0.0,0.0,93,0.00,,,0.08,WeatherCatV1.20B785,2013-09-01 02:06:00,
2013-08-31 22:11:00,69.9,68.1,29.88,East,85,0.0,0.0,94,0.00,,,0.08,WeatherCatV1.20B785,2013-09-01 02:11:00,
2013-08-31 22:16:00,69.9,68.1,29.87,East,85,0.0,0.0,94,0.00,,,0.08,WeatherCatV1.20B785,2013-09-01 02:16:00,
2013-08-31 22:21:00,69.7,67.9,29.88,East,85,0.0,0.0,94,0.00,,,0.08,WeatherCatV1.20B785,2013-09-01 02:21:00,
2013-08-31 22:26:00,69.6,67.8,29.88,East,85,0.0,0.0,94,0.00,,,0.08,WeatherCatV1.20B785,2013-09-01 02:26:00,
2013-08-31 22:31:00,69.6,68.1,29.87,East,85,0.0,0.0,95,0.00,,,0.08,WeatherCatV1.20B785,2013-09-01 02:31:00,
2013-08-31 22:36:00,69.5,67.7,29.87,East,85,0.0,0.0,94,0.00,,,0.08,WeatherCatV1.20B785,2013-09-01 02:36:00,
2013-08-31 22:41:00,69.3,67.5,29.88,East,85,0.0,0.0,94,0.00,,,0.08,WeatherCatV1.20B785,2013-09-01 02:41:00,
2013-08-31 22:46:00,69.2,67.7,29.88,East,85,0.0,0.0,95,0.00,,,0.08,WeatherCatV1.20B785,2013-09-01 02:46:00,
2013-08-31 22:51:00,69.2,67.7,29.88,East,85,0.0,0.0,95,0.00,,,0.08,WeatherCatV1.20B785,2013-09-01 02:51:00,
2013-08-31 22:56:00,69.1,67.6,29.88,East,85,0.0,0.0,95,0.00,,,0.08,WeatherCatV1.20B785,2013-09-01 02:56:00,
2013-08-31 23:02:00,69.1,67.6,29.88,East,85,0.0,0.0,95,0.00,,,0.08,WeatherCatV1.20B785,2013-09-01 03:02:00,
2013-08-31 23:07:00,69.0,67.8,29.87,East,85,0.0,0.0,96,0.00,,,0.08,WeatherCatV1.20B785,2013-09-01 03:07:00,
2013-08-31 23:12:00,69.0,67.5,29.88,East,85,0.0,0.0,95,0.00,,,0.08,WeatherCatV1.20B785,2013-09-01 03:12:00,
2013-08-31 23:17:00,69.0,67.5,29.88,East,85,0.0,0.0,95,0.00,,,0.08,WeatherCatV1.20B785,2013-09-01 03:17:00,
2013-08-31 23:22:00,68.9,67.4,29.88,East,85,0.0,0.0,95,0.00,,,0.08,WeatherCatV1.20B785,2013-09-01 03:22:00,
2013-08-31 23:27:00,68.7,67.2,29.88,East,85,0.0,0.0,95,0.00,,,0.08,WeatherCatV1.20B785,2013-09-01 03:27:00,
2013-08-31 23:32:00,68.7,67.5,29.88,East,85,0.0,0.0,96,0.00,,,0.08,WeatherCatV1.20B785,2013-09-01 03:32:00,
2013-08-31 23:37:00,68.7,67.5,29.88,East,85,0.0,0.0,96,0.00,,,0.08,WeatherCatV1.20B785,2013-09-01 03:37:00,
2013-08-31 23:42:00,68.6,67.4,29.89,East,85,0.0,1.0,96,0.00,,,0.08,WeatherCatV1.20B785,2013-09-01 03:42:00,
2013-08-31 23:47:00,68.6,67.4,29.89,East,85,0.0,0.0,96,0.00,,,0.08,WeatherCatV1.20B785,2013-09-01 03:47:00,
2013-08-31 23:52:00,68.7,67.5,29.89,East,85,0.0,0.0,96,0.00,,,0.08,WeatherCatV1.20B785,2013-09-01 03:52:00,
2013-08-31 23:57:00,68.8,67.6,29.89,East,85,0.0,0.0,96,0.00,,,0.08,WeatherCatV1.20B785,2013-09-01 03:57:00,